User: anonymous   Login
Location: Unspecified
(0.0000°N, 0.0000°E)
Time: 01:33:35
(UTC+00:00)
Language:

Cosmos 1809 - Orbit

View from above orbital plane
View from above orbital plane
View from above satellite
View from above satellite

Ground track
Ground track

The orbit data is extracted from the following two-line orbital elements,

1 17241U 86101A   18021.91945160 +.00000051 +00000-0 +32527-4 0  9997
2 17241 082.5285 203.5370 0016310 128.5552 028.8217 13.84107311570342
Epoch (UTC): 21 January 2018 22:04:00
Eccentricity: 0.0016310
inclination: 82.5285°
perigee height: 937 km
apogee height: 961 km
right ascension of ascending node: 203.5370°
argument of perigee: 128.5552°
revolutions per day: 13.84107311
mean anomaly at epoch: 28.8217°
orbit number at epoch: 57034

The dashed part of the orbit path shows where the satellite is in the earth's shadow,  

DLR